"2009-03-16 00:00:00",714580,7.542,320.4,8.74,1.275,13.04,104.6053,11.06,12.41,12.8,0,110.3,13.31,11.85,282.4
"2009-03-16 00:00:30",714581,6.828,315.9,2.123,0.546,10.07,104.6011,11.05,12.14,12.51,0,110.3,13.31,11.84,277.9
"2009-03-16 00:01:00",714582,7.782,323.1,7.37,1.433,12.23,104.6008,11.05,12.29,12.67,0,110.3,13.31,11.84,285.1
"2009-03-16 00:01:30",714583,7.245,324.4,7.225,1.264,10.94,104.6008,11.05,12.19,12.62,0,110.3,13.31,11.84,286.4
"2009-03-16 00:02:00",714584,7.492,322.4,5.703,1.333,12.1,104.6008,11.05,12.29,12.76,0,110.3,13.31,11.84,284.4
"2009-03-16 00:02:30",714585,6.462,322.8,7.395,0.967,11.11,104.6008,11.05,12.28,12.76,0,110.3,13.31,11.84,284.8
"2009-03-16 00:03:00",714586,7.954,332.2,6.629,1.246,13.39,104.6008,11.05,12.35,12.84,0,110.3,13.31,11.84,294.2
"2009-03-16 00:03:30",714587,6.38,327.2,6.734,1.092,11.28,104.6002,11.05,12.25,12.77,0,110.3,13.31,11.84,289.2
"2009-03-16 00:04:00",714588,6.818,325.1,6.082,1.693,11.43,104.5969,11.04,12.1,12.63,0,110.3,13.31,11.83,287.1
"2009-03-16 00:04:30",714589,6.494,319.6,4.924,0.684,10.78,104.5912,11.03,12.23,12.81,0,110.3,13.31,11.82,281.6
"2009-03-16 00:05:00",714590,8.52,329.7,5.644,1.026,13.4,104.5867,11.01,12.19,12.73,0,110.3,13.31,11.81,291.7
"2009-03-16 00:05:30",714591,6.324,321.7,3.396,0.606,10.42,104.5842,11.01,12.2,12.77,0,110.3,13.31,11.80,283.7
"2009-03-16 00:06:00",714592,8.16,333.4,6.784,1.123,12.9,104.578,10.99,12.23,12.82,0,110.3,13.31,11.78,295.4
"2009-03-16 00:06:30",714593,8.62,332.1,6.686,1.279,13.59,104.569,10.97,12.31,12.91,0,110.3,13.31,11.76,294.1
"2009-03-16 00:07:00",714594,8.1,321.6,8.73,1.205,11.44,104.5685,10.97,12.16,12.78,0,110.3,13.31,11.76,283.6
"2009-03-16 00:07:30",714595,6.59,315.1,3.112,0.26,10.12,104.569,10.97,12.13,12.81,0,110.3,13.35,11.76,277.1
"2009-03-16 00:08:00",714596,7.759,324.5,6.675,1.167,12.1,104.5723,10.98,12.13,12.78,0,110.3,13.31,11.77,286.5
"2009-03-16 00:08:30",714597,7.688,324.6,5.741,1.045,11.78,104.5735,10.98,12.27,12.98,0,110.3,13.31,11.77,286.6
"2009-03-16 00:09:00",714598,8.25,329,10.09,1.377,12.63,104.5736,10.98,12.1,12.84,0,110.3,13.31,11.77,291.0
"2009-03-16 00:09:30",714599,7.986,327,11.18,1.447,12.67,104.5674,10.97,12.27,12.96,0,110.3,13.31,11.76,289.0
"2009-03-16 00:10:00",714600,9.6,333.6,7.857,1.032,14,104.5517,10.93,12.22,12.98,0,110.3,13.31,11.72,295.6
"2009-03-16 00:10:30",714601,8.77,324.2,5.979,1.377,12.57,104.5449,10.91,12.13,12.84,0,110.3,13.31,11.70,286.2
"2009-03-16 00:11:00",714602,6.723,314.8,2.379,0.353,10.09,104.5476,10.91,12,12.7,0,110.3,13.31,11.70,276.8
"2009-03-16 00:11:30",714603,7.673,323,7.012,1.203,11.96,104.5523,10.93,12.15,12.89,0,110.3,13.31,11.72,285.0
"2009-03-16 00:12:00",714604,7.773,326.1,8.06,1.252,12.32,104.5541,10.93,12.12,12.91,0,110.3,13.31,11.72,288.1
"2009-03-16 00:12:30",714605,7.357,321.4,3.764,1.111,10.74,104.5562,10.94,12.08,12.88,0,110.3,13.31,11.73,283.4
"2009-03-16 00:13:00",714606,7.57,329.9,9.76,1.425,12.54,104.5478,10.92,12.07,12.86,0,110.3,13.31,11.71,291.9
"2009-03-16 00:13:30",714607,7.528,324.9,6.127,1.233,13.48,104.546,10.91,12.13,12.94,0,110.3,13.31,11.70,286.9
"2009-03-16 00:14:00",714608,7.093,322.8,4.237,0.704,10.77,104.5368,10.89,12.05,12.88,0,110.3,13.32,11.68,284.8
"2009-03-16 00:14:30",714609,7.675,315,6.492,0.616,10.85,104.5332,10.88,11.95,12.79,0,110.3,13.32,11.67,277.0
"2009-03-16 00:15:00",714610,7.599,320.6,11.21,1.03,11.83,104.5347,10.88,12.1,12.93,0,110.3,13.32,11.67,282.6
"2009-03-16 00:15:30",714611,9.2,328.1,8.16,1.289,12.96,104.5344,10.88,12.1,12.95,0,110.3,13.32,11.67,290.1
"2009-03-16 00:16:00",714612,9.33,328,6.334,1.287,13.34,104.5344,10.88,12.08,13.01,0,110.3,13.32,11.67,290.0
"2009-03-16 00:16:30",714613,8.74,321.3,6.792,1.24,13.72,104.531,10.87,12.15,13.03,0,110.3,13.32,11.66,283.3
"2009-03-16 00:17:00",714614,8.22,320,5.403,1.303,12.59,104.5226,10.85,12,12.8,0,110.3,13.32,11.64,282.0
"2009-03-16 00:17:30",714615,6.577,321.4,6.532,1.037,11.34,104.5073,10.81,12.01,12.8,0,110.3,13.32,11.60,283.4
"2009-03-16 00:18:00",714616,5.806,319,1.849,0.376,9.89,104.5008,10.8,11.87,12.71,0,110.3,13.36,11.58,281.0
"2009-03-16 00:18:30",714617,6.203,322.1,1.726,0.163,10.15,104.5008,10.8,11.9,12.79,0,110.3,13.36,11.58,284.1
"2009-03-16 00:19:00",714618,7.665,328,6.297,1.127,13.6,104.5008,10.8,12,12.95,0,110.3,13.33,11.58,290.0
"2009-03-16 00:19:30",714619,7.321,327.2,6.862,1.442,13.95,104.5008,10.8,12.16,13.14,0,110.3,13.33,11.58,289.2
"2009-03-16 00:20:00",714620,8.31,322.2,6.965,1.238,13.57,104.5008,10.8,12.03,12.94,0,110.3,13.33,11.58,284.2
"2009-03-16 00:20:30",714621,7.167,315.7,5.745,1.572,11.82,104.5008,10.8,11.92,12.81,0,110.3,13.33,11.58,277.7
"2009-03-16 00:21:00",714622,6.743,322.3,8.19,1.531,11.75,104.5008,10.8,11.99,12.92,0,110.3,13.33,11.58,284.3
"2009-03-16 00:21:30",714623,5.545,312.4,3.196,0.225,9.89,104.4972,10.79,11.82,12.81,0,110.3,13.36,11.58,274.4
"2009-03-16 00:22:00",714624,5.609,319.3,5.549,0.272,10.07,104.4915,10.77,11.83,12.8,0,110.3,13.36,11.56,281.3
"2009-03-16 00:22:30",714625,6.755,321.2,9.08,1.623,12.05,104.4805,10.74,11.97,12.99,0,110.3,13.33,11.53,283.2
"2009-03-16 00:23:00",714626,8.91,335.7,6.763,0.986,14.52,104.4695,10.72,12.06,13.1,0,110.3,13.33,11.50,297.7
"2009-03-16 00:23:30",714627,8.4,329.4,7.69,1.08,13.92,104.467,10.71,12.05,13.1,0,110.3,13.33,11.50,291.4
"2009-03-16 00:24:00",714628,7.351,324.2,8.74,1.332,12.17,104.467,10.71,11.94,12.96,0,110.2,13.33,11.50,286.2
"2009-03-16 00:24:30",714629,6.252,322.3,8.83,1.187,11.68,104.467,10.71,11.94,12.96,0,110.2,13.33,11.50,284.3
"2009-03-16 00:25:00",714630,5.364,315.7,1.907,0.301,9.78,104.467,10.71,11.77,12.8,0,110.2,13.36,11.50,277.7
"2009-03-16 00:25:30",714631,5.826,316.7,3.064,0.354,9.96,104.467,10.71,11.8,12.81,0,110.2,13.36,11.50,278.7
"2009-03-16 00:26:00",714632,7.428,327.4,8.66,1.431,12.52,104.467,10.71,11.87,12.94,0,110.2,13.33,11.50,289.4
"2009-03-16 00:26:30",714633,7.234,327.1,10.31,1.302,13.22,104.4685,10.71,11.97,13.12,0,110.2,13.33,11.50,289.1
"2009-03-16 00:27:00",714634,8.32,339.8,4.373,0.821,14.81,104.4676,10.71,12.03,13.19,0,110.2,13.33,11.50,301.8
"2009-03-16 00:27:30",714635,7.169,333.5,7.726,1.297,13.18,104.4658,10.71,11.95,13.15,0,110.2,13.33,11.49,295.5
"2009-03-16 00:28:00",714636,5.838,323.6,4.711,0.923,10.57,104.4642,10.7,11.9,13.09,0,110.2,13.33,11.49,285.6
"2009-03-16 00:28:30",714637,6.389,322.5,4.814,1.244,10.58,104.4531,10.67,11.74,12.95,0,110.2,13.33,11.46,284.5
"2009-03-16 00:29:00",714638,5.211,317.9,3.159,0.116,9.78,104.4484,10.66,11.74,12.92,0,110.2,13.36,11.45,279.9
"2009-03-16 00:29:30",714639,5.492,317.7,2.915,0.219,10.21,104.4497,10.66,11.74,12.9,0,110.2,13.36,11.45,279.7
"2009-03-16 00:30:00",714640,6.602,323.2,8.44,1.341,13.25,104.4538,10.67,11.98,13.15,0,110.2,13.33,11.46,285.2
"2009-03-16 00:30:30",714641,7.517,326.1,7.557,1.067,13.82,104.4591,10.69,12.01,13.17,0,110.2,13.34,11.48,288.1
"2009-03-16 00:31:00",714642,7.395,319.7,7.325,1.454,13.77,104.4591,10.69,11.93,13.11,0,110.2,13.34,11.48,281.7
"2009-03-16 00:31:30",714643,6.498,327,3.618,1.285,11.64,104.4629,10.7,11.82,12.99,0,110.2,13.34,11.49,289.0
"2009-03-16 00:32:00",714644,6.518,333.2,6.137,1.356,11.62,104.4659,10.71,11.83,13.15,0,110.2,13.34,11.50,295.2
"2009-03-16 00:32:30",714645,5.692,328.8,2.343,0.184,9.57,104.4665,10.71,11.69,13.11,0,110.2,13.38,11.50,290.8
"2009-03-16 00:33:00",714646,5.032,322.3,3.1,0.657,9.76,104.4623,10.7,11.7,13.14,0,110.2,13.38,11.49,284.3
"2009-03-16 00:33:30",714647,5.866,334.7,4.646,1.294,12.39,104.4606,10.69,11.76,13.22,0,110.2,13.34,11.48,296.7
"2009-03-16 00:34:00",714648,7.02,344,7.19,1.316,13.13,104.4584,10.69,11.92,13.35,0,110.2,13.34,11.48,306.0
"2009-03-16 00:34:30",714649,6.03,339.4,5.783,1.313,12.28,104.4578,10.68,11.83,13.29,0,110.2,13.34,11.47,301.4
"2009-03-16 00:35:00",714650,5.597,336.4,5.618,1.08,11.04,104.4578,10.68,11.84,13.28,0,110.2,13.34,11.47,298.4
"2009-03-16 00:35:30",714651,6.605,338.8,6.104,1.304,13.32,104.4558,10.68,11.92,13.36,0,110.2,13.34,11.47,300.8
"2009-03-16 00:36:00",714652,6.505,336,7.423,1.413,10.32,104.4589,10.69,11.68,13.11,0,110.2,13.34,11.48,298.0
"2009-03-16 00:36:30",714653,5.363,333.1,1.047,0.361,9.22,104.4595,10.69,11.68,13.11,0,110.2,13.38,11.48,295.1
"2009-03-16 00:37:00",714654,5.367,337,4.321,0.38,9.55,104.4603,10.69,11.67,13.11,0,110.2,13.38,11.48,299.0
"2009-03-16 00:37:30",714655,6.345,337.9,7.307,1.32,11.72,104.4634,10.7,11.72,13.15,0,110.2,13.34,11.49,299.9
"2009-03-16 00:38:00",714656,6.569,340.5,7.789,1.345,13.96,104.4674,10.71,11.96,13.38,0,110.2,13.34,11.50,302.5
"2009-03-16 00:38:30",714657,6.157,333.2,6.144,1.372,11.93,104.4685,10.71,11.78,13.17,0,110.2,13.34,11.50,295.2
"2009-03-16 00:39:00",714658,5.425,336.1,7.189,0.949,12,104.4685,10.71,11.86,13.24,0,110.2,13.34,11.50,298.1
"2009-03-16 00:39:30",714659,6.829,341.1,5.446,1.518,13.02,104.4685,10.71,11.87,13.21,0,110.2,13.34,11.50,303.1
"2009-03-16 00:40:00",714660,4.86,327,3.56,0.151,9.41,104.4685,10.71,11.7,13.01,0,110.2,13.38,11.50,289.0
"2009-03-16 00:40:30",714661,5.186,334.2,3.991,0.249,9.45,104.4685,10.71,11.7,13.02,0,110.2,13.38,11.50,296.2
"2009-03-16 00:41:00",714662,5.137,335.7,2.033,0.256,9.81,104.4685,10.71,11.7,13,0,110.2,13.38,11.50,297.7
"2009-03-16 00:41:30",714663,6.167,338.6,6.83,1.324,13.08,104.4685,10.71,11.89,13.16,0,110.2,13.34,11.50,300.6
"2009-03-16 00:42:00",714664,7.512,344.8,7.038,1.226,13.96,104.4685,10.71,11.98,13.26,0,110.2,13.34,11.50,306.8
"2009-03-16 00:42:30",714665,7.168,345.4,8.04,1.272,13.6,104.4685,10.71,11.85,13.13,0,110.2,13.34,11.50,307.4
"2009-03-16 00:43:00",714666,5.275,325.5,5.657,1.031,10.99,104.4685,10.71,11.86,13.1,0,110.2,13.34,11.50,287.5
"2009-03-16 00:43:30",714667,6.453,332.6,6.989,1.366,11.54,104.4685,10.71,11.8,12.99,0,110.2,13.34,11.50,294.6
"2009-03-16 00:44:00",714668,6.033,328.4,3.695,0.995,10.52,104.4685,10.71,11.9,13.09,0,110.2,13.34,11.50,290.4
"2009-03-16 00:44:30",714669,5.623,332.2,3.556,0.444,9.61,104.4685,10.71,11.73,12.96,0,110.2,13.37,11.50,294.2
"2009-03-16 00:45:00",714670,5.003,332.4,3.308,0.169,9.96,104.4685,10.71,11.73,12.99,0,110.2,13.38,11.50,294.4
"2009-03-16 00:45:30",714671,7.072,333.7,5.758,1.491,13.28,104.4685,10.71,12,13.27,0,110.2,13.34,11.50,295.7
"2009-03-16 00:46:00",714672,7.914,332.4,6.935,1.279,13.86,104.4685,10.71,11.94,13.2,0,110.2,13.34,11.50,294.4
"2009-03-16 00:46:30",714673,6.486,329.2,4.367,1.153,11.75,104.4685,10.71,11.89,13.22,0,110.2,13.34,11.50,291.2
"2009-03-16 00:47:00",714674,7.156,342.6,5.761,1.468,13.44,104.4685,10.71,11.99,13.27,0,110.2,13.34,11.50,304.6
"2009-03-16 00:47:30",714675,6.945,332.9,5.42,0.973,10.38,104.4685,10.71,11.76,13.07,0,110.2,13.34,11.50,294.9
"2009-03-16 00:48:00",714676,7.042,339.2,6.321,0.911,11.24,104.4685,10.71,11.85,13.15,0,110.2,13.35,11.50,301.2
"2009-03-16 00:48:30",714677,6.502,332.4,4.586,0.583,10.63,104.4685,10.71,11.84,13.13,0,110.2,13.35,11.50,294.4
"2009-03-16 00:49:00",714678,6.909,336.3,6.418,1.312,11.85,104.4685,10.71,11.81,13.1,0,110.2,13.35,11.50,298.3
"2009-03-16 00:49:30",714679,7.711,339.7,5.696,1.267,14.22,104.4685,10.71,11.97,13.25,0,110.2,13.35,11.50,301.7
"2009-03-16 00:50:00",714680,7.9,337.9,5.968,1.217,13.18,104.4685,10.71,11.95,13.22,0,110.2,13.35,11.50,299.9
"2009-03-16 00:50:30",714681,6.593,328.2,4.85,0.829,10.67,104.4685,10.71,11.85,13.16,0,110.2,13.35,11.50,290.2
"2009-03-16 00:51:00",714682,7.693,335.3,6.883,1.367,11.82,104.4685,10.71,11.9,13.17,0,110.2,13.35,11.50,297.3
"2009-03-16 00:51:30",714683,6.752,327.9,6.502,0.813,10.46,104.4682,10.71,11.87,13.13,0,110.2,13.35,11.50,289.9
"2009-03-16 00:52:00",714684,7.62,338,4.357,0.82,11.02,104.4671,10.71,11.74,12.97,0,110.2,13.35,11.50,300.0
"2009-03-16 00:52:30",714685,8.15,338.5,6.975,1.205,13.04,104.4671,10.71,11.92,13.13,0,110.2,13.35,11.50,300.5
"2009-03-16 00:53:00",714686,8.63,338.8,6.784,1.143,13.84,104.4679,10.71,11.93,13.14,0,110.2,13.35,11.50,300.8
"2009-03-16 00:53:30",714687,8.44,337.8,6.946,1.259,13.69,104.4682,10.71,11.99,13.19,0,110.2,13.35,11.50,299.8
"2009-03-16 00:54:00",714688,7.916,336.7,5.674,1.379,12.09,104.4685,10.71,11.82,13.02,0,110.2,13.35,11.50,298.7
"2009-03-16 00:54:30",714689,8,338.4,5.339,1.097,11.32,104.4671,10.71,11.81,13.04,0,110.2,13.35,11.50,300.4
"2009-03-16 00:55:00",714690,7.416,334.1,5.462,1.191,10.69,104.4677,10.71,11.75,13.01,0,110.2,13.35,11.50,296.1
"2009-03-16 00:55:30",714691,7.908,336.2,7.514,1.129,13.81,104.4671,10.71,11.97,13.22,0,110.2,13.35,11.50,298.2
"2009-03-16 00:56:00",714692,7.483,329.2,4.242,0.893,11.12,104.4677,10.71,11.81,13.08,0,110.2,13.35,11.50,291.2
"2009-03-16 00:56:30",714693,9.33,339.7,4.267,0.879,14.65,104.4634,10.7,11.97,13.25,0,110.2,13.35,11.49,301.7
"2009-03-16 00:57:00",714694,8.35,337.4,6.765,1.29,13.45,104.4646,10.7,11.98,13.23,0,110.2,13.35,11.49,299.4
"2009-03-16 00:57:30",714695,7.933,333.7,5.965,1.13,11.49,104.4609,10.69,11.8,13.04,0,110.2,13.35,11.48,295.7
"2009-03-16 00:58:00",714696,8.02,332.9,8.33,1.356,10.75,104.4598,10.69,11.71,12.93,0,110.2,13.34,11.48,294.9
"2009-03-16 00:58:30",714697,7.208,331.6,2.992,0.803,10.25,104.4604,10.69,11.82,13.01,0,110.2,13.34,11.48,293.6
"2009-03-16 00:59:00",714698,8.76,346.3,10.04,1.211,13.74,104.4536,10.67,11.9,13.09,0,110.2,13.34,11.46,308.3
"2009-03-16 00:59:30",714699,8.27,332.7,9.01,1.27,12.39,104.446,10.65,11.93,13,0,110.2,13.34,11.44,294.7
"2009-03-16 01:00:00",714700,9.83,340.7,6.684,1.346,13.81,104.4416,10.64,11.95,12.81,0,110.2,13.34,11.43,302.7
"2009-03-16 01:00:30",714701,9.73,337.2,7.252,1.191,13.84,104.4408,10.64,11.94,12.86,0,110.2,13.34,11.43,299.2
"2009-03-16 01:01:00",714702,8.36,328,10.16,1.278,11.63,104.44,10.64,11.74,12.75,0,110.2,13.34,11.43,290.0
"2009-03-16 01:01:30",714703,8.21,338.1,6.52,1.168,11.85,104.4429,10.65,11.74,12.81,0,110.2,13.34,11.44,300.1
"2009-03-16 01:02:00",714704,7.953,335.6,5.418,1.348,11.5,104.4429,10.65,11.78,12.83,0,110.2,13.34,11.44,297.6
"2009-03-16 01:02:30",714705,8.15,334.9,6.127,1.168,12.51,104.4444,10.65,11.81,12.78,0,110.2,13.35,11.44,296.9
"2009-03-16 01:03:00",714706,8.2,338.4,6.08,1.209,12.34,104.4447,10.65,11.91,12.88,0,110.2,13.35,11.44,300.4
"2009-03-16 01:03:30",714707,9.27,342.7,5.691,1.293,13.93,104.45,10.66,11.85,12.65,0,110.2,13.35,11.45,304.7
"2009-03-16 01:04:00",714708,7.869,333.6,8.96,1.437,12.61,104.4509,10.67,11.88,12.74,0,110.2,13.35,11.46,295.6
"2009-03-16 01:04:30",714709,7.227,331.5,4.377,0.699,10.53,104.4473,10.66,11.76,12.71,0,110.2,13.35,11.45,293.5
"2009-03-16 01:05:00",714710,6.98,328.1,4.944,1.089,11.15,104.4432,10.65,11.71,12.58,0,110.2,13.35,11.44,290.1
"2009-03-16 01:05:30",714711,7.844,329.8,7.292,1.379,13.62,104.4308,10.62,11.81,12.82,0,110.2,13.35,11.41,291.8
"2009-03-16 01:06:00",714712,7.285,332.9,6.964,1.304,13.51,104.4276,10.61,11.91,12.98,0,110.2,13.35,11.40,294.9
"2009-03-16 01:06:30",714713,6.515,330.2,6.831,1.204,11.84,104.427,10.61,11.66,12.81,0,110.2,13.35,11.40,292.2
"2009-03-16 01:07:00",714714,7.898,333.2,6.32,1.263,12.61,104.4297,10.61,11.85,12.97,0,110.2,13.35,11.40,295.2
"2009-03-16 01:07:30",714715,8.01,329,6.867,1.158,13.62,104.4317,10.62,11.84,12.83,0,110.2,13.35,11.41,291.0
"2009-03-16 01:08:00",714716,6.128,324.3,1.723,0.24,9.98,104.4347,10.63,11.62,12.63,0,110.2,13.36,11.42,286.3
"2009-03-16 01:08:30",714717,6.052,321.9,1.792,0.17,9.94,104.435,10.63,11.61,12.63,0,110.2,13.39,11.42,283.9
"2009-03-16 01:09:00",714718,7.75,331.1,5.545,1.264,13.27,104.4344,10.63,11.78,12.77,0,110.1,13.36,11.41,293.1
"2009-03-16 01:09:30",714719,7.103,326.3,7.121,1.223,12.83,104.4322,10.62,11.83,12.86,0,110.2,13.36,11.41,288.3
"2009-03-16 01:10:00",714720,7.102,318.9,5.737,1.213,11.72,104.4237,10.6,11.74,12.75,0,110.2,13.36,11.39,280.9
"2009-03-16 01:10:30",714721,7.981,328.1,7.847,1.3,13.11,104.4204,10.59,11.74,12.78,0,110.2,13.36,11.38,290.1
"2009-03-16 01:11:00",714722,7.909,325.8,9.73,1.243,12.84,104.4068,10.55,11.68,12.7,0,110.1,13.36,11.34,287.8
"2009-03-16 01:11:30",714723,6.677,310.6,2.068,0.311,10.09,104.4023,10.54,11.64,12.75,0,110.1,13.39,11.33,272.6
"2009-03-16 01:12:00",714724,7.321,314.3,5.093,0.612,10.9,104.4023,10.54,11.71,12.87,0,110.1,13.36,11.33,276.3
"2009-03-16 01:12:30",714725,8.73,323.2,5.43,1.053,13.98,104.4023,10.54,11.82,12.97,0,110,13.36,11.33,285.2
"2009-03-16 01:13:00",714726,8.43,321,6.192,1.368,13.75,104.4023,10.54,11.8,12.97,0,110.1,13.36,11.33,283.0
"2009-03-16 01:13:30",714727,7.803,316,4.986,1.282,11.76,104.4023,10.54,11.57,12.79,0,110.1,13.36,11.33,278.0
"2009-03-16 01:14:00",714728,8.81,321.2,6.339,1.447,13.47,104.4023,10.54,11.8,13.05,0,110.1,13.36,11.33,283.2
"2009-03-16 01:14:30",714729,8.46,324.6,7.022,1.499,13.42,104.4003,10.54,11.65,12.93,0,110.1,13.36,11.33,286.6
"2009-03-16 01:15:00",714730,6.504,315.1,2.701,0.38,10.56,104.3961,10.53,11.64,12.96,0,110.1,13.39,11.32,277.1
"2009-03-16 01:15:30",714731,7.941,322,8.91,1,12.18,104.3941,10.52,11.72,12.96,0,110.1,13.35,11.31,284.0
"2009-03-16 01:16:00",714732,8.76,326.8,6.862,1.19,13.95,104.3904,10.51,11.77,12.98,0,110.1,13.35,11.30,288.8
"2009-03-16 01:16:30",714733,8.22,317.7,6.223,1.108,11.35,104.38,10.49,11.51,12.66,0,110.1,13.35,11.27,279.7
"2009-03-16 01:17:00",714734,7.735,315.7,5.778,0.998,11.58,104.3729,10.47,11.65,12.71,0,110.1,13.35,11.26,277.7
"2009-03-16 01:17:30",714735,8.97,319.9,6.854,1.215,13.67,104.3696,10.46,11.67,12.78,0,110.1,13.35,11.25,281.9
"2009-03-16 01:18:00",714736,8.62,318.3,7.139,1.313,12.96,104.3687,10.46,11.65,12.83,0,110.1,13.35,11.25,280.3
"2009-03-16 01:18:30",714737,7.371,313.9,6.192,1.176,11.47,104.3684,10.46,11.6,12.82,0,110.1,13.35,11.24,275.9
"2009-03-16 01:19:00",714738,8.12,320.2,5.676,1.211,13.24,104.3684,10.46,11.7,12.94,0,110.1,13.36,11.24,282.2
"2009-03-16 01:19:30",714739,7.14,315.3,5.487,1.009,11.12,104.3684,10.46,11.67,12.89,0,110.1,13.36,11.24,277.3
"2009-03-16 01:20:00",714740,8.3,320.4,6.65,1.26,12.49,104.3684,10.46,11.56,12.72,0,110.1,13.37,11.24,282.4
"2009-03-16 01:20:30",714741,8.14,316.7,5.744,1.347,12.19,104.3684,10.46,11.63,12.77,0,110.1,13.37,11.24,278.7
"2009-03-16 01:21:00",714742,8.54,318.7,6.878,1.279,13.02,104.3684,10.46,11.61,12.76,0,110.1,13.37,11.24,280.7
"2009-03-16 01:21:30",714743,8.31,317.1,6.548,1.224,13.28,104.3684,10.46,11.71,12.83,0,110.1,13.37,11.24,279.1
"2009-03-16 01:22:00",714744,7.754,314.1,6.201,1.061,11.75,104.3684,10.46,11.66,12.8,0,110.1,13.37,11.24,276.1
"2009-03-16 01:22:30",714745,9.1,323.9,6.539,1.382,13.69,104.3679,10.45,11.74,12.84,0,110.1,13.37,11.24,285.9
"2009-03-16 01:23:00",714746,7.422,314.1,3.62,0.993,10.12,104.3648,10.45,11.55,12.58,0,110.1,13.37,11.24,276.1
"2009-03-16 01:23:30",714747,9.13,323.9,6.76,1.23,14.09,104.3614,10.44,11.69,12.7,0,110.1,13.37,11.23,285.9
"2009-03-16 01:24:00",714748,8.22,320.5,5.206,0.793,11.25,104.358,10.43,11.58,12.57,0,110.1,13.37,11.22,282.5
"2009-03-16 01:24:30",714749,9.91,330.7,5.429,1.512,13.94,104.3523,10.42,11.63,12.6,0,110.1,13.37,11.20,292.7
"2009-03-16 01:25:00",714750,9.94,324.1,5.303,1.271,13.37,104.3478,10.4,11.72,12.72,0,110.1,13.37,11.19,286.1
"2009-03-16 01:25:30",714751,10.35,325.1,8.16,1.201,13.23,104.3416,10.39,11.64,12.65,0,110.1,13.37,11.18,287.1
"2009-03-16 01:26:00",714752,9.48,321.3,5.419,0.976,10.98,104.3351,10.37,11.48,12.46,0,110.1,13.37,11.16,283.3
"2009-03-16 01:26:30",714753,9.85,325.4,7.176,1.175,12.68,104.3352,10.37,11.61,12.56,0,110.1,13.37,11.16,287.4
"2009-03-16 01:27:00",714754,9.27,325.3,6.859,1.076,12.35,104.3357,10.37,11.52,12.53,0,110.1,13.37,11.16,287.3
"2009-03-16 01:27:30",714755,9.49,327,6.942,1.227,13.23,104.3346,10.37,11.72,12.7,0,110.1,13.37,11.16,289.0
"2009-03-16 01:28:00",714756,9.54,326.2,6.316,1.244,13.38,104.3372,10.38,11.63,12.63,0,110.1,13.37,11.16,288.2
"2009-03-16 01:28:30",714757,8.42,324.4,6.161,1.372,12.9,104.339,10.38,11.65,12.63,0,110.1,13.37,11.17,286.4
"2009-03-16 01:29:00",714758,8.18,322.4,7.256,1.437,12.16,104.3393,10.38,11.48,12.5,0,110.1,13.37,11.17,284.4
"2009-03-16 01:29:30",714759,7.356,320.5,4.779,1.142,11.46,104.3428,10.39,11.59,12.64,0,110.1,13.37,11.18,282.5
"2009-03-16 01:30:00",714760,7.821,321.4,7.083,1.316,12.41,104.3416,10.39,11.52,12.61,0,110.1,13.37,11.18,283.4
"2009-03-16 01:30:30",714761,7.437,316.4,5.294,0.94,11.32,104.3449,10.4,11.51,12.55,0,110.1,13.37,11.18,278.4
"2009-03-16 01:31:00",714762,9.5,324.3,6.366,1.055,14.12,104.3452,10.4,11.64,12.65,0,110.1,13.37,11.19,286.3
"2009-03-16 01:31:30",714763,9.68,325.5,5.889,1.133,14.12,104.3464,10.4,11.6,12.59,0,110.1,13.37,11.19,287.5
"2009-03-16 01:32:00",714764,8.59,326.5,6.725,1.27,12.38,104.3485,10.41,11.55,12.53,0,110,13.37,11.19,288.5
"2009-03-16 01:32:30",714765,8.6,325.4,7.782,1.333,11.69,104.3448,10.4,11.42,12.4,0,110.1,13.37,11.18,287.4
"2009-03-16 01:33:00",714766,8.66,324.2,6.938,1.262,12.28,104.3409,10.39,11.55,12.54,0,110.1,13.37,11.17,286.2
"2009-03-16 01:33:30",714767,8.55,322.2,6.08,1.132,11.66,104.3374,10.38,11.41,12.42,0,110.2,13.37,11.17,284.2
"2009-03-16 01:34:00",714768,9,325.1,6.013,1.453,13.15,104.3287,10.35,11.6,12.63,0,110.1,13.37,11.14,287.1
"2009-03-16 01:34:30",714769,8.32,324.5,6.942,1.305,13.81,104.326,10.35,11.62,12.64,0,110.1,13.37,11.14,286.5
"2009-03-16 01:35:00",714770,8.52,319,6.582,1.092,11.8,104.3248,10.34,11.55,12.62,0,110.1,13.37,11.13,281.0
"2009-03-16 01:35:30",714771,8.93,323.3,6.133,1.479,12.56,104.329,10.36,11.63,12.74,0,110.1,13.37,11.14,285.3
"2009-03-16 01:36:00",714772,8.8,320.4,6.377,1.379,11.66,104.331,10.36,11.38,12.45,0,110.1,13.37,11.15,282.4
"2009-03-16 01:36:30",714773,8.24,319.4,7.133,1.212,12.12,104.3316,10.36,11.57,12.63,0,110.1,13.37,11.15,281.4
"2009-03-16 01:37:00",714774,9.05,324.5,6.477,1.196,13.75,104.3337,10.37,11.56,12.63,0,110.1,13.37,11.16,286.5
"2009-03-16 01:37:30",714775,8.83,324.2,7.365,1.319,13.18,104.3325,10.36,11.61,12.72,0,110.1,13.38,11.15,286.2
"2009-03-16 01:38:00",714776,8.26,323.6,6.465,1.299,12.74,104.3343,10.37,11.61,12.73,0,110.1,13.38,11.16,285.6
"2009-03-16 01:38:30",714777,7.166,315.4,8.09,1.426,11.37,104.3354,10.37,11.38,12.51,0,110.1,13.38,11.16,277.4
"2009-03-16 01:39:00",714778,6.283,312.6,5.221,0.904,10.75,104.3352,10.37,11.53,12.7,0,110.1,13.38,11.16,274.6
"2009-03-16 01:39:30",714779,7.562,322,8.22,1.23,12.34,104.3352,10.37,11.44,12.62,0,110.1,13.38,11.16,284.0
"2009-03-16 01:40:00",714780,7.027,314.8,7.682,0.994,11.68,104.336,10.37,11.48,12.67,0,110.1,13.38,11.16,276.8
"2009-03-16 01:40:30",714781,8.84,325.7,5.738,1.326,13.66,104.336,10.37,11.52,12.71,0,110.1,13.38,11.16,287.7
"2009-03-16 01:41:00",714782,8.49,319.4,7.436,1.309,12.79,104.3352,10.37,11.6,12.81,0,110.1,13.38,11.16,281.4
"2009-03-16 01:41:30",714783,8.65,322.8,6.77,1.371,13.32,104.3357,10.37,11.53,12.72,0,110.1,13.38,11.16,284.8
"2009-03-16 01:42:00",714784,8.24,320.1,6.071,1.153,11.25,104.3315,10.36,11.42,12.62,0,110.1,13.38,11.15,282.1
"2009-03-16 01:42:30",714785,8.92,325.1,6.059,1.202,13.25,104.327,10.35,11.44,12.62,0,110.1,13.38,11.14,287.1
"2009-03-16 01:43:00",714786,6.876,316,3.595,0.556,10.74,104.3253,10.35,11.47,12.67,0,110.1,13.38,11.13,278.0
"2009-03-16 01:43:30",714787,7.28,316.7,8.11,1.281,12.04,104.3231,10.34,11.49,12.72,0,110.1,13.38,11.13,278.7
"2009-03-16 01:44:00",714788,8.49,325.4,7.968,1.204,13.03,104.3157,10.32,11.5,12.72,0,110.1,13.38,11.11,287.4
"2009-03-16 01:44:30",714789,8.46,325.8,7.663,1.416,12.19,104.3092,10.3,11.42,12.61,0,110.1,13.38,11.09,287.8
"2009-03-16 01:45:00",714790,7.508,317.6,4.773,0.813,10.17,104.3033,10.29,11.42,12.61,0,110.1,13.38,11.08,279.6
"2009-03-16 01:45:30",714791,9.1,324.8,4.196,0.942,13.5,104.3022,10.29,11.51,12.74,0,110.1,13.38,11.07,286.8
"2009-03-16 01:46:00",714792,7.775,319.8,4.211,1.012,11.74,104.3022,10.29,11.5,12.73,0,110.1,13.38,11.07,281.8
"2009-03-16 01:46:30",714793,8.89,321.5,8.01,1.033,12.39,104.3022,10.29,11.45,12.65,0,110.1,13.38,11.07,283.5
"2009-03-16 01:47:00",714794,9.16,323.9,6.035,1.322,13.62,104.3022,10.29,11.49,12.75,0,110.1,13.38,11.07,285.9
"2009-03-16 01:47:30",714795,8.53,321.1,7.402,1.425,12.47,104.3022,10.29,11.44,12.66,0,110.1,13.38,11.07,283.1
"2009-03-16 01:48:00",714796,6.443,309.4,2.769,0.545,9.87,104.3022,10.29,11.29,12.54,0,110.1,13.41,11.07,271.4